[[{"header":{"parameterUnit":"m.s-1","parameterCategory":1,"la1":30.2991,"la2":30.254,"lo1":-89.0895,"lo2":-89.0444,"dy":0.0017,"dx":0.0017,"nx":28,"ny":28,"refTime":"2025-08-01T21:00:00:Z","depth":0,"parameterNumber":2,"parameterNumberName":"U-component_of_WINDS"},"data":[0,0,0,0,0,0,0,0,0,0,0,0,0,0,0,0,0,0,0,0,0,0,0,0,0,0,0,0,0,0,0,0,0,0,0,0,0,0,0,0,0,0,0,0,0,0,0,0,0,0,0,0,0,0,0,0,0,0,1.3894,1.3893,0,1.3875,1.3874,1.3874,1.3859,1.3859,1.3859,1.3859,1.3838,1.3837,1.3837,0,0,0,0,0,0,0,0,0,0,0,0,0,1.3916,1.3915,1.3894,1.3893,1.3893,1.3875,1.3874,1.3874,1.3859,1.3859,1.3859,1.3859,1.3838,1.3837,1.3837,0,0,0,0,0,0,0,0,0,0,0,0,0,1.3902,1.3915,1.3894,1.3884,1.3882,1.3875,1.3874,1.3874,1.3859,1.3859,1.3859,1.3858,1.3838,1.3838,1.3837,1.3837,0,0,1.3835,1.3835,0,0,0,0,0,0,0,0,1.3903,1.3901,1.3885,1.3884,1.3883,1.3869,1.3874,1.3862,1.3859,1.3868,1.3859,1.3858,1.3848,1.3847,1.3844,1.3836,1.3836,1.3835,1.3835,1.3834,1.3834,0,0,0,0,0,0,0,1.3904,1.3902,1.3886,1.3885,1.3884,1.3879,1.3877,1.3872,1.386,1.3867,1.3866,1.3864,1.3848,1.3844,1.3843,1.3835,1.3835,1.3834,1.3834,1.3834,1.3826,1.3826,0,0,0,0,0,0,1.3907,1.3903,1.3887,1.3886,1.3893,1.3879,1.3877,1.3874,1.386,1.3857,1.3864,1.3863,1.3845,1.3844,1.3842,1.3841,1.3834,1.3834,1.3833,1.3826,1.3826,1.3827,0,0,0,0,0,0,1.3907,1.3905,1.3887,1.3894,1.3891,1.3879,1.3876,1.3873,1.387,1.3857,1.3855,1.3863,1.3845,1.3843,1.3839,1.384,1.3833,1.3833,1.3826,1.3826,1.3826,1.384,0,0,0,0,0,0,1.3908,1.3906,1.3906,1.3894,1.3891,1.3885,1.3876,1.3873,1.3869,1.3868,1.3856,1.3854,1.3845,1.384,1.3838,1.3839,1.3832,1.3826,1.3826,1.3826,1.3839,1.384,1.3841,0,0,0,0,0,1.3909,1.3911,1.3906,1.3904,1.3892,1.3885,1.3883,1.3873,1.3869,1.3869,1.3861,1.3854,1.384,1.3839,1.3837,1.3839,1.3826,1.3826,1.3826,1.3838,1.384,1.3841,0,0,0,0,0,0,1.3923,1.3909,1.3904,1.3902,1.3895,1.3882,1.3882,1.3876,1.3869,1.3868,1.3856,1.3853,1.385,1.3844,1.3843,1.3838,1.3832,1.3832,1.3842,1.3843,1.3845,1.3846,1.3832,0,0,0,0,0,1.3926,1.3922,1.391,1.3909,1.3906,1.3895,1.3891,1.3885,1.3876,1.3873,1.3865,1.3856,1.385,1.3846,1.384,1.3838,1.3835,1.3838,1.3839,1.384,1.384,1.3838,1.3839,1.3828,1.3828,1.3828,0,0,1.3932,1.3924,1.3922,1.3912,1.3905,1.3901,1.3892,1.3888,1.3885,1.3872,1.3867,1.3861,1.3851,1.3847,1.3845,1.3842,1.3842,1.3841,1.3842,1.3841,1.3838,1.3839,1.384,1.3828,1.3828,1.3828,0,0,1.394,1.3934,1.3933,1.3926,1.3917,1.3909,1.3909,1.3897,1.3892,1.3887,1.3878,1.3873,1.3863,1.3856,1.3851,1.3857,1.3849,1.3855,1.3861,1.3859,1.386,1.386,1.3862,1.3862,1.3855,1.3855,1.3855,0,1.3949,1.3942,1.3933,1.3929,1.3924,1.3913,1.3911,1.3906,1.3894,1.3891,1.3888,1.3874,1.3867,1.3861,1.3863,1.3859,1.3858,1.3856,1.3861,1.3861,1.3862,1.3863,1.3863,1.3856,1.3856,1.3856,1.3856,0,1.3953,1.3949,1.3948,1.3938,1.3933,1.3931,1.392,1.3916,1.391,1.3902,1.3897,1.3888,1.3879,1.3877,1.3871,1.387,1.3868,1.3863,1.3857,1.3864,1.3864,1.3864,1.3857,1.3857,1.3856,1.3856,0,0,1.397,1.3954,1.3954,1.3949,1.3937,1.3933,1.393,1.3921,1.3918,1.3911,1.3907,1.3898,1.3893,1.3888,1.388,1.3878,1.3882,1.3873,1.3872,1.3874,1.388,1.3884,1.3884,1.3877,1.3877,1.3877,1.388,0,1.3976,1.3969,1.396,1.3956,1.3952,1.3941,1.3938,1.393,1.3923,1.3917,1.3909,1.3903,1.3897,1.3893,1.3891,1.3882,1.3883,1.3882,1.3873,1.3872,1.3875,1.3885,1.3889,1.3892,1.3881,1.3881,1.3881,0,1.3982,1.3975,1.3971,1.396,1.3957,1.3955,1.3946,1.3941,1.3932,1.3927,1.392,1.3912,1.3907,1.3902,1.3894,1.3893,1.3889,1.3884,1.3884,1.3882,1.3877,1.3883,1.3893,1.3894,1.3881,1.3881,1.3881,0,1.3994,1.3984,1.398,1.3976,1.3962,1.3961,1.3955,1.3945,1.3941,1.3933,1.393,1.3921,1.3916,1.391,1.3899,1.3897,1.3892,1.3886,1.3887,1.3887,1.3886,1.3886,1.3896,1.3884,1.3884,1.3884,1.3884,0,1.4002,1.3999,1.3985,1.3983,1.3979,1.3969,1.3966,1.3959,1.395,1.3946,1.3936,1.3931,1.3918,1.3912,1.3904,1.3898,1.3896,1.3891,1.3889,1.3892,1.3892,1.3888,1.3888,1.3884,1.3884,1.3884,1.3884,0,1.4014,1.4005,1.4,1.3987,1.3984,1.3982,1.3971,1.3968,1.396,1.3954,1.3952,1.394,1.3932,1.3921,1.391,1.3904,1.3899,1.3896,1.3903,1.3901,1.3903,1.3902,1.3909,1.3909,1.3899,1.3899,1.3899,0,1.4019,1.4017,1.4005,1.4001,1.3996,1.399,1.3986,1.3975,1.397,1.3959,1.3957,1.3948,1.3941,1.3929,1.3918,1.391,1.3906,1.3909,1.3904,1.3907,1.3905,1.3905,1.3904,1.391,1.391,1.391,1.391,0,1.4029,1.4025,1.4019,1.4011,1.4006,1.3999,1.3991,1.3989,1.3976,1.3971,1.3964,1.3958,1.3947,1.3938,1.3928,1.3921,1.3913,1.3912,1.3911,1.3914,1.3918,1.3915,1.3905,1.3911,1.3911,1.3911,1.3911,1.3911,1.4038,1.4035,1.4026,1.402,1.4013,1.4006,1.4003,1.3994,1.3988,1.3978,1.3972,1.3964,1.3954,1.3939,1.3933,1.3926,1.3923,1.3922,1.3922,1.3922,1.3923,1.3919,1.3924,1.3924,1.3924,1.3924,1.3924,0,1.4047,1.404,1.4035,1.4025,1.4019,1.4013,1.4005,1.4,1.3994,1.3985,1.3978,1.3969,1.396,1.3949,1.394,1.3936,1.3932,1.3934,1.3934,1.3932,1.3926,1.3928,1.3937,1.3937,1.3937,1.3937,1.3937,1.3937,1.4051,1.4046,1.4041,1.4032,1.4025,1.4018,1.4014,1.4007,1.4,1.3991,1.3984,1.3977,1.3967,1.3956,1.3948,1.3945,1.3941,1.3944,1.394,1.3934,1.3933,1.3932,1.3933,1.3943,1.3943,1.3946,1.3946,1.3946]},{"header":{"parameterUnit":"m.s-1","parameterCategory":1,"la1":30.2991,"la2":30.254,"lo1":-89.0895,"lo2":-89.0444,"dy":0.0017,"dx":0.0017,"nx":28,"ny":28,"refTime":"2025-08-01T21:00:00:Z","depth":0,"parameterNumber":3,"parameterNumberName":"V-component_of_WINDS"},"data":[0,0,0,0,0,0,0,0,0,0,0,0,0,0,0,0,0,0,0,0,0,0,0,0,0,0,0,0,0,0,0,0,0,0,0,0,0,0,0,0,0,0,0,0,0,0,0,0,0,0,0,0,0,0,0,0,0,0,-0.6638,-0.6636,0,-0.6443,-0.6441,-0.6439,-0.634,-0.634,-0.634,-0.634,-0.6142,-0.6137,-0.6132,0,0,0,0,0,0,0,0,0,0,0,0,0,-0.6931,-0.6926,-0.6639,-0.6636,-0.6634,-0.6443,-0.6441,-0.6438,-0.634,-0.634,-0.634,-0.634,-0.6144,-0.6137,-0.6131,0,0,0,0,0,0,0,0,0,0,0,0,0,-0.6777,-0.6924,-0.6639,-0.6562,-0.6553,-0.6444,-0.6441,-0.6437,-0.6341,-0.634,-0.634,-0.634,-0.6146,-0.6138,-0.613,-0.6083,0,0,-0.6106,-0.6103,0,0,0,0,0,0,0,0,-0.6785,-0.6766,-0.6576,-0.6567,-0.6557,-0.6416,-0.6471,-0.6319,-0.6341,-0.6421,-0.634,-0.634,-0.6233,-0.6218,-0.6182,-0.6074,-0.6065,-0.6105,-0.6101,-0.6097,-0.6095,0,0,0,0,0,0,0,-0.6796,-0.6774,-0.6561,-0.6573,-0.6562,-0.6538,-0.6516,-0.6441,-0.633,-0.6414,-0.6407,-0.6385,-0.6228,-0.619,-0.6176,-0.6062,-0.6106,-0.6099,-0.6094,-0.6091,-0.5908,-0.5908,0,0,0,0,0,0,-0.6819,-0.6783,-0.6567,-0.6555,-0.6673,-0.6533,-0.6509,-0.6461,-0.6331,-0.6311,-0.6385,-0.6381,-0.6203,-0.6186,-0.6169,-0.6105,-0.6097,-0.609,-0.6085,-0.5908,-0.5908,-0.5908,0,0,0,0,0,0,-0.6826,-0.6801,-0.6575,-0.6667,-0.6637,-0.6528,-0.6476,-0.6458,-0.6419,-0.6308,-0.6288,-0.6366,-0.6202,-0.618,-0.6105,-0.6097,-0.6086,-0.6079,-0.5908,-0.5908,-0.5908,-0.5978,0,0,0,0,0,0,-0.6835,-0.6804,-0.6784,-0.6667,-0.6632,-0.6514,-0.6476,-0.6454,-0.6405,-0.6398,-0.6285,-0.6266,-0.62,-0.6118,-0.6098,-0.6086,-0.6073,-0.5908,-0.5908,-0.5908,-0.5976,-0.5981,-0.5984,0,0,0,0,0,-0.6845,-0.6811,-0.6783,-0.6758,-0.6605,-0.6514,-0.6494,-0.6418,-0.6405,-0.6384,-0.6314,-0.627,-0.6102,-0.6111,-0.6087,-0.6074,-0.5909,-0.5908,-0.5908,-0.5975,-0.598,-0.5984,0,0,0,0,0,0,-0.6929,-0.6794,-0.6762,-0.6689,-0.6614,-0.6497,-0.6469,-0.6426,-0.6353,-0.6349,-0.6259,-0.6235,-0.6169,-0.6114,-0.6126,-0.6022,-0.6001,-0.5996,-0.606,-0.6064,-0.6068,-0.6082,-0.6067,0,0,0,0,0,-0.6939,-0.6876,-0.6762,-0.6709,-0.6673,-0.6578,-0.6535,-0.6484,-0.6402,-0.637,-0.6294,-0.6217,-0.6147,-0.6103,-0.6032,-0.5969,-0.5944,-0.5948,-0.5952,-0.5956,-0.5953,-0.5916,-0.5917,-0.5907,-0.5907,-0.5907,0,0,-0.6959,-0.6878,-0.6843,-0.6724,-0.6659,-0.6597,-0.6551,-0.6487,-0.644,-0.636,-0.6285,-0.6227,-0.6136,-0.6067,-0.6033,-0.6019,-0.595,-0.5956,-0.596,-0.5954,-0.5916,-0.5917,-0.5918,-0.5907,-0.5907,-0.5907,0,0,-0.6963,-0.6895,-0.6843,-0.678,-0.6684,-0.6621,-0.6609,-0.65,-0.6458,-0.6382,-0.6321,-0.6265,-0.6146,-0.6084,-0.6036,-0.6021,-0.5978,-0.6001,-0.6021,-0.5987,-0.5988,-0.5988,-0.5983,-0.5982,-0.5998,-0.5998,-0.5998,0,-0.7,-0.6902,-0.6823,-0.6761,-0.6711,-0.6638,-0.6586,-0.6529,-0.6414,-0.6382,-0.6369,-0.6219,-0.6152,-0.6068,-0.6065,-0.6029,-0.6014,-0.6012,-0.5994,-0.5993,-0.5993,-0.5986,-0.5985,-0.6001,-0.6001,-0.6001,-0.6,0,-0.6952,-0.6886,-0.6856,-0.6747,-0.6694,-0.6638,-0.6552,-0.6508,-0.6463,-0.6402,-0.6326,-0.6244,-0.6156,-0.6133,-0.6088,-0.6044,-0.6038,-0.6011,-0.5988,-0.5998,-0.5991,-0.5988,-0.6006,-0.6005,-0.6004,-0.6003,0,0,-0.7,-0.685,-0.6841,-0.6791,-0.6681,-0.6628,-0.657,-0.6484,-0.6449,-0.6373,-0.6323,-0.6226,-0.62,-0.6147,-0.6094,-0.6065,-0.6058,-0.604,-0.6037,-0.6046,-0.6006,-0.6026,-0.6025,-0.603,-0.6029,-0.6029,-0.6013,0,-0.6988,-0.6878,-0.6807,-0.6727,-0.6665,-0.6596,-0.6546,-0.6473,-0.6417,-0.6357,-0.6295,-0.6227,-0.6198,-0.6166,-0.6134,-0.6066,-0.6049,-0.6066,-0.5983,-0.5981,-0.6006,-0.6021,-0.6041,-0.603,-0.601,-0.6009,-0.6009,0,-0.6958,-0.6885,-0.6798,-0.6696,-0.6668,-0.6623,-0.654,-0.6484,-0.6401,-0.6362,-0.6305,-0.6252,-0.6189,-0.6173,-0.6087,-0.61,-0.6063,-0.6025,-0.6023,-0.6011,-0.5994,-0.6009,-0.6025,-0.6023,-0.6004,-0.6004,-0.6004,0,-0.7001,-0.6881,-0.6814,-0.6774,-0.6653,-0.6624,-0.6573,-0.649,-0.6444,-0.6372,-0.6341,-0.6263,-0.6221,-0.6162,-0.6091,-0.6086,-0.6012,-0.599,-0.5978,-0.598,-0.5964,-0.5965,-0.5974,-0.5942,-0.5942,-0.5942,-0.5942,0,-0.6994,-0.6944,-0.6832,-0.6791,-0.6733,-0.6654,-0.6599,-0.6542,-0.647,-0.6418,-0.6354,-0.6307,-0.6215,-0.6157,-0.6101,-0.6039,-0.602,-0.5987,-0.5973,-0.5992,-0.5996,-0.5965,-0.5963,-0.5941,-0.5942,-0.5942,-0.5942,0,-0.7032,-0.6955,-0.6877,-0.677,-0.6742,-0.6705,-0.6613,-0.6572,-0.6513,-0.6447,-0.6428,-0.6335,-0.6264,-0.6187,-0.609,-0.6052,-0.5993,-0.5973,-0.602,-0.6012,-0.6004,-0.6006,-0.5991,-0.5986,-0.596,-0.596,-0.596,0,-0.7031,-0.6991,-0.688,-0.684,-0.6791,-0.6727,-0.668,-0.6601,-0.6555,-0.6459,-0.643,-0.6353,-0.6288,-0.6178,-0.6102,-0.6029,-0.6006,-0.6006,-0.5994,-0.6015,-0.6005,-0.6008,-0.6004,-0.6009,-0.601,-0.601,-0.6011,0,-0.7039,-0.7004,-0.6937,-0.6859,-0.6804,-0.6738,-0.667,-0.6642,-0.655,-0.6501,-0.6427,-0.6377,-0.6278,-0.6204,-0.6121,-0.607,-0.6025,-0.6016,-0.6009,-0.6028,-0.6057,-0.6041,-0.6029,-0.6016,-0.6015,-0.6015,-0.6015,-0.6015,-0.7057,-0.7018,-0.6935,-0.6864,-0.6805,-0.6743,-0.6699,-0.6635,-0.6572,-0.6485,-0.6443,-0.637,-0.6291,-0.6175,-0.6126,-0.6068,-0.6054,-0.6045,-0.6042,-0.6041,-0.6046,-0.6068,-0.6053,-0.6053,-0.6052,-0.6052,-0.6052,0,-0.7061,-0.7004,-0.694,-0.6847,-0.6792,-0.6756,-0.6679,-0.6636,-0.6571,-0.6502,-0.6439,-0.6356,-0.6284,-0.6205,-0.6129,-0.6098,-0.6076,-0.6081,-0.6081,-0.6071,-0.6062,-0.6075,-0.61,-0.61,-0.61,-0.61,-0.61,-0.61,-0.7056,-0.6989,-0.6945,-0.6849,-0.6793,-0.672,-0.668,-0.6623,-0.6567,-0.6476,-0.6417,-0.6365,-0.6292,-0.6211,-0.6144,-0.6123,-0.6098,-0.6109,-0.6082,-0.6075,-0.6071,-0.6067,-0.6079,-0.6104,-0.6104,-0.6094,-0.6094,-0.6094]}]]